When you browse on this site, cookies collect data to enhance your experience and personalize the content and advertising you see.
Visit our Privacy Policy to learn more. By continuing to use the site, you agree to this use of cookies and data.
  • în România
  • Lista ţărilor
  • Pe 7 zile
  • Temperatura apei
  • Hartă satelitară
  • Meteo pe hartă
  • Widget-uri
  • user-avatar
    Intrare

    Meteo pe oră la Chernoreche

    Astăzi, 20 Ianuarie, Duminică

    Timp Temperatura Precipitaţii Vânt Presiune Umiditate
    00:00 0°C° 0.7 mm 3 m/s 753 mmHg 95%
    01:00 -2°C° 0.4 mm 4 m/s 753 mmHg 94%
    02:00 -3°C° 0.4 mm 4 m/s 754 mmHg 94%
    03:00 -3°C° 0 mm 4 m/s 754 mmHg 93%
    04:00 -5°C° 0 mm 4 m/s 754 mmHg 92%
    05:00 -8°C° 0 mm 4 m/s 755 mmHg 91%
    06:00 -10°C° 0 mm 4 m/s 755 mmHg 90%
    07:00 -11°C° 0 mm 4 m/s 756 mmHg 90%
    08:00 -12°C° 0 mm 4 m/s 757 mmHg 90%
    09:00 -14°C° 0 mm 3 m/s 757 mmHg 90%
    10:00 -13°C° 0 mm 3 m/s 758 mmHg 90%
    11:00 -12°C° 0 mm 4 m/s 759 mmHg 91%
    12:00 -12°C° 0 mm 4 m/s 759 mmHg 92%
    13:00 -10°C° 0 mm 3 m/s 759 mmHg 91%
    14:00 -10°C° 0 mm 3 m/s 760 mmHg 90%
    15:00 -9°C° 0 mm 3 m/s 760 mmHg 90%
    16:00 -10°C° 0 mm 3 m/s 761 mmHg 90%
    17:00 -10°C° 0 mm 3 m/s 761 mmHg 90%
    18:00 -10°C° 0 mm 2 m/s 761 mmHg 90%
    19:00 -13°C° 0 mm 3 m/s 761 mmHg 91%
    20:00 -14°C° 0 mm 3 m/s 762 mmHg 92%
    21:00 -15°C° 0 mm 3 m/s 762 mmHg 93%
    22:00 -15°C° 0 mm 3 m/s 762 mmHg 93%
    23:00 -16°C° 0 mm 3 m/s 762 mmHg 93%

    Mâine, 21 Ianuarie, Luni

    Timp Temperatura Precipitaţii Vânt Presiune Umiditate
    00:00 -16°C° 0 mm 3 m/s 762 mmHg 93%
    01:00 -17°C° 0 mm 4 m/s 762 mmHg 94%
    02:00 -17°C° 0 mm 4 m/s 762 mmHg 94%
    03:00 -17°C° 0 mm 4 m/s 762 mmHg 94%
    04:00 -17°C° 0 mm 4 m/s 762 mmHg 95%
    05:00 -18°C° 0 mm 5 m/s 762 mmHg 95%
    06:00 -18°C° 0 mm 5 m/s 762 mmHg 95%
    07:00 -17°C° 0 mm 5 m/s 762 mmHg 95%
    08:00 -17°C° 0 mm 6 m/s 762 mmHg 95%
    09:00 -17°C° 0 mm 6 m/s 762 mmHg 95%
    10:00 -16°C° 0 mm 6 m/s 761 mmHg 94%
    11:00 -16°C° 0 mm 6 m/s 761 mmHg 93%
    12:00 -15°C° 0 mm 6 m/s 761 mmHg 93%
    13:00 -15°C° 0 mm 6 m/s 760 mmHg 92%
    14:00 -15°C° 0 mm 6 m/s 760 mmHg 92%
    15:00 -14°C° 0 mm 5 m/s 759 mmHg 92%
    16:00 -15°C° 0.3 mm 6 m/s 759 mmHg 92%
    17:00 -15°C° 0.3 mm 6 m/s 758 mmHg 93%
    18:00 -15°C° 0.3 mm 6 m/s 757 mmHg 93%
    19:00 -14°C° 0.7 mm 6 m/s 756 mmHg 93%
    20:00 -14°C° 0.7 mm 6 m/s 756 mmHg 94%
    21:00 -13°C° 0.7 mm 7 m/s 755 mmHg 94%
    22:00 -11°C° 0.8 mm 6 m/s 754 mmHg 94%
    23:00 -11°C° 0.8 mm 6 m/s 753 mmHg 94%

    Poimâine, 22 Ianuarie, Marţi

    Timp Temperatura Precipitaţii Vânt Presiune Umiditate
    00:00 -10°C° 0.8 mm 5 m/s 752 mmHg 94%
    01:00 -8°C° 0.7 mm 5 m/s 751 mmHg 95%
    02:00 -7°C° 0.7 mm 4 m/s 751 mmHg 95%
    03:00 -5°C° 0.7 mm 4 m/s 751 mmHg 96%
    04:00 -8°C° 0 mm 4 m/s 751 mmHg 94%
    05:00 -10°C° 0 mm 4 m/s 751 mmHg 93%
    06:00 -12°C° 0 mm 4 m/s 752 mmHg 91%
    07:00 -12°C° 0 mm 4 m/s 753 mmHg 91%
    08:00 -12°C° 0 mm 4 m/s 754 mmHg 90%
    09:00 -12°C° 0 mm 4 m/s 755 mmHg 90%
    10:00 -12°C° 0 mm 4 m/s 755 mmHg 88%
    11:00 -14°C° 0 mm 4 m/s 756 mmHg 87%
    12:00 -14°C° 0 mm 4 m/s 757 mmHg 85%
    13:00 -15°C° 0 mm 4 m/s 757 mmHg 86%
    14:00 -15°C° 0 mm 3 m/s 758 mmHg 88%
    15:00 -16°C° 0 mm 3 m/s 758 mmHg 89%
    16:00 -17°C° 0 mm 3 m/s 759 mmHg 90%
    17:00 -18°C° 0 mm 3 m/s 759 mmHg 91%
    18:00 -18°C° 0 mm 2 m/s 760 mmHg 93%
    19:00 -19°C° 0 mm 2 m/s 760 mmHg 93%
    20:00 -19°C° 0 mm 2 m/s 760 mmHg 94%
    21:00 -20°C° 0 mm 2 m/s 761 mmHg 95%
    22:00 -20°C° 0 mm 2 m/s 761 mmHg 96%
    23:00 -21°C° 0 mm 2 m/s 762 mmHg 96%

    23 Ianuarie, Miercuri

    Timp Temperatura Precipitaţii Vânt Presiune Umiditate
    00:00 -21°C° 0 mm 2 m/s 762 mmHg 97%
    01:00 -23°C° 0 mm 2 m/s 763 mmHg 97%
    02:00 -24°C° 0 mm 2 m/s 763 mmHg 97%
    03:00 -24°C° 0 mm 2 m/s 764 mmHg 98%
    04:00 -25°C° 0 mm 2 m/s 764 mmHg 98%
    05:00 -25°C° 0 mm 2 m/s 764 mmHg 98%
    06:00 -25°C° 0 mm 2 m/s 765 mmHg 99%
    07:00 -25°C° 0 mm 2 m/s 765 mmHg 99%
    08:00 -25°C° 0 mm 2 m/s 766 mmHg 98%
    09:00 -25°C° 0 mm 2 m/s 767 mmHg 98%
    10:00 -24°C° 0 mm 2 m/s 767 mmHg 97%
    11:00 -21°C° 0 mm 2 m/s 767 mmHg 96%
    12:00 -20°C° 0 mm 2 m/s 767 mmHg 94%
    13:00 -20°C° 0 mm 2 m/s 768 mmHg 95%
    14:00 -20°C° 0 mm 2 m/s 768 mmHg 95%
    15:00 -20°C° 0 mm 2 m/s 768 mmHg 95%
    16:00 -21°C° 0 mm 2 m/s 768 mmHg 96%
    17:00 -21°C° 0 mm 2 m/s 769 mmHg 96%
    18:00 -23°C° 0 mm 2 m/s 769 mmHg 97%
    19:00 -23°C° 0 mm 2 m/s 769 mmHg 97%
    20:00 -23°C° 0 mm 2 m/s 769 mmHg 97%
    21:00 -24°C° 0 mm 3 m/s 770 mmHg 97%
    22:00 -24°C° 0 mm 3 m/s 770 mmHg 97%
    23:00 -24°C° 0 mm 3 m/s 770 mmHg 97%

    24 Ianuarie, Joi

    Timp Temperatura Precipitaţii Vânt Presiune Umiditate
    00:00 -24°C° 0 mm 3 m/s 770 mmHg 96%
    01:00 -24°C° 0 mm 3 m/s 770 mmHg 96%
    02:00 -24°C° 0 mm 3 m/s 770 mmHg 96%
    03:00 -25°C° 0 mm 4 m/s 770 mmHg 97%
    04:00 -24°C° 0 mm 4 m/s 770 mmHg 96%
    05:00 -24°C° 0 mm 4 m/s 770 mmHg 96%
    06:00 -24°C° 0 mm 4 m/s 770 mmHg 96%
    07:00 -25°C° 0 mm 5 m/s 770 mmHg 95%
    08:00 -24°C° 0 mm 5 m/s 770 mmHg 95%
    09:00 -24°C° 0 mm 5 m/s 770 mmHg 94%
    10:00 -22°C° 0 mm 5 m/s 770 mmHg 93%
    11:00 -22°C° 0 mm 6 m/s 770 mmHg 91%
    12:00 -21°C° 0 mm 6 m/s 770 mmHg 90%
    13:00 -21°C° 0 mm 6 m/s 770 mmHg 89%
    14:00 -22°C° 0 mm 6 m/s 769 mmHg 88%
    15:00 -21°C° 0 mm 5 m/s 769 mmHg 87%
    16:00 -21°C° 0 mm 5 m/s 769 mmHg 87%
    17:00 -22°C° 0 mm 5 m/s 769 mmHg 87%
    18:00 -22°C° 0 mm 5 m/s 769 mmHg 87%
    19:00 -24°C° 0 mm 5 m/s 769 mmHg 87%
    20:00 -24°C° 0 mm 5 m/s 769 mmHg 86%
    21:00 -24°C° 0 mm 5 m/s 769 mmHg 85%
    22:00 -24°C° 0 mm 5 m/s 769 mmHg 85%
    23:00 -24°C° 0 mm 4 m/s 769 mmHg 85%

    25 Ianuarie, Vineri

    Timp Temperatura Precipitaţii Vânt Presiune Umiditate
    00:00 -24°C° 0 mm 4 m/s 769 mmHg 85%
    01:00 -24°C° 0 mm 4 m/s 769 mmHg 86%
    02:00 -25°C° 0 mm 4 m/s 769 mmHg 88%
    03:00 -24°C° 0 mm 3 m/s 769 mmHg 89%
    04:00 -24°C° 0 mm 3 m/s 768 mmHg 90%
    05:00 -24°C° 0 mm 3 m/s 768 mmHg 91%
    06:00 -24°C° 0 mm 3 m/s 768 mmHg 91%
    07:00 -23°C° 0 mm 3 m/s 768 mmHg 91%
    08:00 -20°C° 0 mm 2 m/s 768 mmHg 91%
    09:00 -19°C° 0 mm 2 m/s 768 mmHg 91%
    10:00 -18°C° 0 mm 2 m/s 768 mmHg 90%
    11:00 -17°C° 0 mm 2 m/s 768 mmHg 90%
    12:00 -16°C° 0 mm 2 m/s 767 mmHg 89%
    13:00 -16°C° 0.1 mm 2 m/s 767 mmHg 90%
    14:00 -15°C° 0.1 mm 2 m/s 767 mmHg 91%
    15:00 -15°C° 0.1 mm 2 m/s 767 mmHg 92%
    16:00 -15°C° 0.2 mm 2 m/s 767 mmHg 93%
    17:00 -15°C° 0.2 mm 2 m/s 766 mmHg 94%
    18:00 -16°C° 0.2 mm 3 m/s 766 mmHg 94%
    19:00 -16°C° 0.4 mm 3 m/s 766 mmHg 94%
    20:00 -16°C° 0.4 mm 3 m/s 766 mmHg 95%
    21:00 -16°C° 0.4 mm 3 m/s 766 mmHg 95%
    22:00 -16°C° 0.7 mm 3 m/s 765 mmHg 95%
    23:00 -16°C° 0.7 mm 3 m/s 765 mmHg 96%
    Arată mai mult